Location: Howard City Library
(37.4684°N, 96.2639°W)
Time: 19:12:59
(UTC+00:00)

Abrixas rocket - Pass Details

Date: 18 February 2020
Orbit: 349 x 358 km, 48.4° (Epoch: 30 March)

Event Time Altitude Azimuth Distance (km) Brightness Sun altitude
Rises 01:46:15 0° 306° (NW) 2,155 6.7 -20.5°
Reaches altitude 10° 01:48:17 10° 309° (NW) 1,310 5.5 -20.9°
Enters shadow 01:50:08 35° 318° (NW) 590 3.3 -21.2°
